South St. Paul, MN

7:52 PM CDT on March 24, 2017 (GMT -0500)
South Saint Paul Municipal-Fleming

Weather History for KSGS - March, 2013

Change the Weather History Date:

Tuesday, March 26, 2013

  Actual Average (KSTP) Record (KSTP)
Temperature  
Mean Temperature 34 °F -  
Max Temperature 38 °F 44 °F 82 °F (2007)
Min Temperature 29 °F 27 °F 10 °F (2014)
Degree Days  
Heating Degree Days 32    
Moisture  
Dew Point 21 °F    
Average Humidity 62    
Maximum Humidity 70    
Minimum Humidity 49    
Precipitation  
Precipitation 0.00 in - - ()
Sea Level Pressure  
Sea Level Pressure 30.26 in    
Wind  
Wind Speed 5 mph (West)    
Max Wind Speed 10 mph    
Max Gust Speed -    
Visibility 10 miles    
Events      
Averages and records for this station are not official NWS values.
T = Trace of Precipitation, MM = Missing Value Source: NWS Daily Summary

Daily Weather History Graph

Daily Weather History Graph

Search for Another Location

Airport or City:

Trip Planner

Search our weather history database for the weather conditions in past years. The results will help you decide how hot, cold, wet, or windy it might be!

Date:

Astronomy

Mar. 26, 2013 Rise Set
Actual Time 7:03 AM CDT 7:32 PM CDT
Civil Twilight 6:34 AM CDT 8:01 PM CDT
Nautical Twilight 5:59 AM CDT 8:36 PM CDT
Astronomical Twilight 5:23 AM CDT 9:12 PM CDT
Moon 7:10 PM CDT (3/26) 6:21 AM CDT (3/26)
Length of Visible Light 13h 27m
Length of Day
12h 29m
Waxing Gibbous, 99% of the Moon is Illuminated
Mar 26
Waxing Gibbous
Mar 27
Full
Apr 2
Last Quarter
Apr 10
New
Apr 18
First Quarter

Hourly Weather History & Observations

Time (CDT) Temp. Windchill Dew Point Humidity Pressure Visibility Wind Dir Wind Speed Gust Speed Precip Events Conditions
12:12 AM 32.0 °F 28.7 °F 20.3 °F 62% 30.20 in 10.0 mi West 3.5 mph - N/A   Overcast
12:32 AM 32.5 °F 29.3 °F 20.5 °F 61% 30.20 in 10.0 mi WNW 3.5 mph - N/A   Overcast
12:52 AM 32.9 °F 27.5 °F 20.8 °F 61% 30.20 in 10.0 mi WNW 5.8 mph - N/A   Overcast
1:12 AM 32.0 °F 27.5 °F 20.8 °F 63% 30.21 in 10.0 mi West 4.6 mph - N/A   Overcast
1:32 AM 32.0 °F 27.5 °F 21.2 °F 64% 30.22 in 10.0 mi West 4.6 mph - N/A   Overcast
1:52 AM 31.6 °F 27.0 °F 21.4 °F 66% 30.22 in 10.0 mi WNW 4.6 mph - N/A   Overcast
2:12 AM 31.5 °F 25.8 °F 21.9 °F 68% 30.22 in 10.0 mi West 5.8 mph - N/A   Overcast
2:33 AM 31.5 °F 24.9 °F 21.9 °F 68% 30.22 in 10.0 mi WNW 6.9 mph - N/A   Overcast
2:52 AM 31.1 °F 26.4 °F 21.9 °F 69% 30.22 in 10.0 mi WNW 4.6 mph - N/A   Overcast
3:12 AM 31.1 °F 26.4 °F 21.9 °F 69% 30.22 in 10.0 mi WNW 4.6 mph - N/A   Overcast
3:33 AM 31.1 °F 26.4 °F 21.9 °F 69% 30.22 in 10.0 mi WNW 4.6 mph - N/A   Overcast
3:52 AM 31.1 °F 26.4 °F 21.7 °F 68% 30.22 in 10.0 mi WNW 4.6 mph - N/A   Overcast
4:12 AM 31.1 °F 27.7 °F 21.7 °F 68% 30.22 in 10.0 mi WNW 3.5 mph - N/A   Overcast
4:32 AM 30.9 °F 27.5 °F 21.2 °F 67% 30.22 in 10.0 mi WNW 3.5 mph - N/A   Overcast
4:52 AM 30.9 °F 26.2 °F 21.2 °F 67% 30.23 in 10.0 mi WNW 4.6 mph - N/A   Overcast
5:12 AM 30.7 °F 27.3 °F 21.4 °F 68% 30.23 in 10.0 mi WNW 3.5 mph - N/A   Overcast
5:32 AM 30.7 °F - 21.2 °F 68% 30.23 in 10.0 mi Calm Calm - N/A   Overcast
5:52 AM 30.6 °F 27.1 °F 21.2 °F 68% 30.24 in 10.0 mi WNW 3.5 mph - N/A   Overcast
6:13 AM 30.2 °F 25.4 °F 21.0 °F 69% 30.24 in 10.0 mi WNW 4.6 mph - N/A   Overcast
6:32 AM 30.2 °F 25.4 °F 21.0 °F 69% 30.24 in 10.0 mi WNW 4.6 mph - N/A   Overcast
6:52 AM 30.0 °F 25.2 °F 21.0 °F 69% 30.24 in 10.0 mi WNW 4.6 mph - N/A   Overcast
7:12 AM 30.0 °F 25.2 °F 21.0 °F 69% 30.25 in 10.0 mi West 4.6 mph - N/A   Overcast
7:32 AM 29.8 °F 23.9 °F 20.8 °F 69% 30.26 in 10.0 mi WNW 5.8 mph - N/A   Overcast
7:52 AM 29.7 °F 24.7 °F 20.8 °F 70% 30.26 in 10.0 mi WNW 4.6 mph - N/A   Overcast
8:12 AM 30.0 °F 24.1 °F 20.7 °F 68% 30.27 in 10.0 mi WNW 5.8 mph - N/A   Overcast
8:32 AM 29.7 °F 24.7 °F 21.0 °F 70% 30.27 in 10.0 mi WNW 4.6 mph - N/A   Overcast
8:53 AM 29.8 °F 24.9 °F 21.2 °F 70% 30.27 in 10.0 mi WNW 4.6 mph - N/A   Overcast
9:12 AM 30.2 °F 24.3 °F 21.0 °F 69% 30.28 in 10.0 mi WNW 5.8 mph - N/A   Overcast
9:32 AM 30.7 °F 26.0 °F 21.4 °F 68% 30.28 in 10.0 mi West 4.6 mph - N/A   Overcast
9:53 AM 30.9 °F 26.2 °F 21.2 °F 67% 30.28 in 10.0 mi West 4.6 mph - N/A   Overcast
10:12 AM 31.5 °F 28.1 °F 21.2 °F 66% 30.28 in 10.0 mi West 3.5 mph - N/A   Overcast
10:32 AM 32.0 °F 26.4 °F 21.6 °F 65% 30.29 in 10.0 mi West 5.8 mph - N/A   Overcast
10:52 AM 32.5 °F - 21.7 °F 64% 30.29 in 10.0 mi Calm Calm - N/A   Overcast
11:12 AM 33.1 °F 28.7 °F 21.7 °F 63% 30.28 in 10.0 mi WNW 4.6 mph - N/A   Overcast
11:32 AM 33.8 °F 30.8 °F 21.9 °F 62% 30.28 in 10.0 mi West 3.5 mph - N/A   Overcast
11:52 AM 34.7 °F 31.8 °F 22.1 °F 60% 30.28 in 10.0 mi WNW 3.5 mph - N/A   Overcast
12:12 PM 35.6 °F 32.8 °F 22.3 °F 58% 30.28 in 10.0 mi NW 3.5 mph - N/A   Overcast
12:32 PM 36.1 °F 32.3 °F 22.1 °F 57% 30.27 in 10.0 mi West 4.6 mph - N/A   Overcast
12:52 PM 36.9 °F 30.7 °F 21.6 °F 54% 30.27 in 10.0 mi West 8.1 mph - N/A   Mostly Cloudy
1:12 PM 37.6 °F 33.1 °F 21.0 °F 51% 30.27 in 10.0 mi West 5.8 mph - N/A   Scattered Clouds
1:32 PM 38.3 °F 31.9 °F 20.5 °F 49% 30.26 in 10.0 mi NW 9.2 mph - N/A   Scattered Clouds
1:52 PM 37.8 °F - 19.9 °F 49% 30.26 in 10.0 mi Calm Calm - N/A   Overcast
2:12 PM 37.8 °F 31.8 °F 19.9 °F 49% 30.26 in 10.0 mi NW 8.1 mph - N/A   Overcast
2:32 PM 37.9 °F 33.5 °F 20.1 °F 49% 30.26 in 10.0 mi WNW 5.8 mph - N/A   Overcast
2:53 PM 37.8 °F 32.5 °F 21.2 °F 51% 30.26 in 10.0 mi West 6.9 mph - N/A   Overcast
3:12 PM 37.6 °F 31.6 °F 21.2 °F 52% 30.26 in 10.0 mi West 8.1 mph - N/A   Overcast
3:32 PM 37.6 °F 31.0 °F 21.2 °F 52% 30.26 in 10.0 mi West 9.2 mph - N/A   Overcast
3:53 PM 37.4 °F 30.3 °F 21.9 °F 54% 30.26 in 10.0 mi West 10.4 mph - N/A   Overcast
4:12 PM 36.9 °F 30.1 °F 23.2 °F 58% 30.26 in 10.0 mi West 9.2 mph - N/A   Overcast
4:33 PM 36.9 °F 30.7 °F 22.8 °F 57% 30.26 in 10.0 mi West 8.1 mph - N/A   Overcast
4:52 PM 36.9 °F 32.2 °F 22.6 °F 56% 30.26 in 10.0 mi West 5.8 mph - N/A   Overcast
5:12 PM 37.0 °F 32.4 °F 22.5 °F 56% 30.26 in 10.0 mi West 5.8 mph - N/A   Overcast
5:32 PM 37.0 °F 31.6 °F 21.9 °F 54% 30.26 in 10.0 mi WSW 6.9 mph - N/A   Overcast
5:52 PM 37.4 °F 32.8 °F 21.9 °F 54% 30.26 in 10.0 mi WSW 5.8 mph - N/A   Overcast
6:13 PM 37.6 °F 31.6 °F 20.5 °F 50% 30.25 in 10.0 mi West 8.1 mph - N/A   Mostly Cloudy
6:32 PM 37.9 °F 33.5 °F 20.1 °F 49% 30.25 in 10.0 mi West 5.8 mph - N/A   Mostly Cloudy
6:53 PM 37.8 °F 34.2 °F 20.5 °F 50% 30.26 in 10.0 mi West 4.6 mph - N/A   Mostly Cloudy
7:12 PM 37.4 °F 33.8 °F 20.1 °F 50% 30.26 in 10.0 mi West 4.6 mph - N/A   Mostly Cloudy
7:32 PM 37.0 °F 33.3 °F 20.3 °F 51% 30.26 in 10.0 mi West 4.6 mph - N/A   Overcast
7:52 PM 35.8 °F 31.9 °F 20.5 °F 54% 30.26 in 10.0 mi West 4.6 mph - N/A   Overcast
8:12 PM 35.2 °F 31.2 °F 20.3 °F 55% 30.26 in 10.0 mi West 4.6 mph - N/A   Overcast
8:32 PM 34.7 °F 28.8 °F 21.0 °F 57% 30.27 in 10.0 mi West 6.9 mph - N/A   Overcast
8:52 PM 33.8 °F 27.0 °F 21.7 °F 61% 30.27 in 10.0 mi West 8.1 mph - N/A   Scattered Clouds
9:12 PM 33.3 °F 27.9 °F 21.7 °F 63% 30.27 in 10.0 mi West 5.8 mph - N/A   Clear
9:32 PM 32.7 °F 27.3 °F 21.9 °F 64% 30.28 in 10.0 mi West 5.8 mph - N/A   Clear
9:52 PM 32.0 °F 26.4 °F 21.7 °F 66% 30.28 in 10.0 mi West 5.8 mph - N/A   Clear
10:12 PM 31.8 °F 27.3 °F 21.6 °F 66% 30.28 in 10.0 mi West 4.6 mph - N/A   Clear
10:33 PM 31.6 °F 27.0 °F 21.7 °F 67% 30.28 in 10.0 mi West 4.6 mph - N/A   Scattered Clouds
10:52 PM 31.5 °F - 21.6 °F 67% 30.29 in 10.0 mi Calm Calm - N/A   Scattered Clouds
11:12 PM 31.6 °F - 21.7 °F 67% 30.29 in 10.0 mi Calm Calm - N/A   Mostly Cloudy
11:33 PM 31.5 °F - 21.6 °F 67% 30.29 in 10.0 mi Calm Calm - N/A   Overcast
11:52 PM 31.6 °F - 21.7 °F 67% 30.30 in 10.0 mi Calm Calm - N/A   Overcast